Regional Weather Roundup
Issued by NWS

Home | Current Version | Previous Version | Text Only | Print | Product List | Glossary On
Versions: 1 2 3 4 5 6 7 8 9 10 11 12 13 14 15 16 17 18 19 20 21 22 23 24 25 26 27 28
000
ASUS44 KJAN 221210
RWRMS

MISSISSIPPI HOURLY WEATHER ROUNDUP
NATIONAL WEATHER SERVICE JACKSON MS
700 AM CDT TUE MAY 22 2018

NOTE: "FAIR: INDICATES FEW OR NO CLOUDS BELOW 12,000 FEET WITH NO
SIGNIFICANT WEATHER AND/OR OBSTRUCTIONS TO VISIBILITY.

MSZ001>002-007>008-010>013-018>021-025>028-034>036-221300-
NORTHWEST MISSISSIPPI

CITY           SKY/WX    TMP DP  RH WIND       PRES   REMARKS
BATESVILLE       N/A    N/A N/A N/A MISG        N/A
CLARKSDALE     FOG       72  72 100 CALM      30.04R VSB 0
CLEVELAND      FOG       70  70 100 CALM      30.03R VSB 1/2
GREENWOOD      FAIR      71  68  90 CALM      30.02R
6HR MIN TEMP:  67; 6HR MAX TEMP:  71;

GREENVILLE     FAIR      70  68  93 SE5       30.01R
6HR MIN TEMP:  68; 6HR MAX TEMP:  70;

OLIVE BRANCH   PTSUNNY   68  68 100 CALM      30.03
TUNICA           N/A     70  70 100 CALM      30.04R FOG
WINONA         FAIR      68  68 100 CALM      30.03R
$$

MSZ003>006-009-014>017-022>024-029>033-037>039-221300-
NORTHEAST MISSISSIPPI

CITY           SKY/WX    TMP DP  RH WIND       PRES   REMARKS
ABERDEEN         N/A     70  70 100 CALM      30.06R
COLUMBUS AFB   FAIR      68  68 100 SE5       30.04R
6HR MIN TEMP:  64; 6HR MAX TEMP:  69;

CORINTH          N/A     68  68 100 CALM      30.05R
GOLDN TRIANGLE FAIR      70  68  93 S5        30.05R
STARKVILLE     CLOUDY    68  68 100 SE5       30.06R FOG
TUPELO         FAIR      72  67  84 E3        30.05R
$$

MSZ040-058-221300-
CENTRAL MISSISSIPPI

CITY           SKY/WX    TMP DP  RH WIND       PRES   REMARKS
JACKSON INTL   FAIR      69  68  96 CALM      30.02R
6HR MIN TEMP:  67; 6HR MAX TEMP:  69;

JACKSON HAWKNS PTSUNNY   70  70 100 CALM      30.03R FOG
6HR MIN TEMP:  68; 6HR MAX TEMP:  70;

MADISON        FAIR      68  68 100 CALM      30.02R
MERIDIAN KEY   FOG       70  68  93 E3        30.04R VSB 1/2
6HR MIN TEMP:  69; 6HR MAX TEMP:  74;

MERIDIAN NAS   CLOUDY    70  69  97 E5        30.04R
6HR MIN TEMP:  68; 6HR MAX TEMP:  71;

RAYMOND        FAIR      70  70 100 CALM      30.02R FOG
VICKSBURG VKS  SUNNY     70  70 100 CALM        N/A
$$

MSZ059>079-221300-
SOUTH MISSISSIPPI

CITY           SKY/WX    TMP DP  RH WIND       PRES   REMARKS
COLUMBIA       FAIR      68  66  94 CALM      30.06R
HATTIESBURG    FAIR      69  68  96 CALM      30.04R
6HR MIN TEMP:  68; 6HR MAX TEMP:  72;

LAUREL         FAIR      69  69 100 CALM      30.03R
MCCOMB         FAIR      71  68  90 CALM      30.02R
6HR MIN TEMP:  69; 6HR MAX TEMP:  72; 6HR PCP:  0.05;

NATCHEZ        FAIR      72  69  90 CALM      30.02R
6HR MIN TEMP:  70; 6HR MAX TEMP:  74;

PINE BELT      FAIR      70  69  97 CALM      30.04R
6HR MIN TEMP:  66; 6HR MAX TEMP:  71;

$$

MSZ080>082-221300-
COASTAL MISSISSIPPI

CITY           SKY/WX    TMP DP  RH WIND       PRES   REMARKS
BAY ST LOUIS   MOSUNNY   70  70 100 CALM      30.02
BILOXI         FAIR      74  72  93 NE3       30.01R
6HR MIN TEMP:  71; 6HR MAX TEMP:  75;

PASCAGOULA     FAIR      72  69  90 CALM      30.02R
6HR MIN TEMP:  68; 6HR MAX TEMP:  72;

GULFPORT       FAIR      74  71  91 CALM      30.01R
6HR MIN TEMP:  71; 6HR MAX TEMP:  74;

$$

LAZ007>009-015>016-023>026-221300-
NORTHEAST LOUISIANA

CITY           SKY/WX    TMP DP  RH WIND       PRES   REMARKS
TALLULAH/VBURG FAIR      72  72 100 CALM      30.02R
6HR MIN TEMP:  68; 6HR MAX TEMP:  72;

VIDALIA        FAIR      73  71  93 CALM      30.01R
$$




USA.gov is the U.S. government's official web portal to all federal, state and local government web resources and services.